Details From FOOL - Leon M Ba
To FKYS - YAOUNDE NSIMALEN
Flight Number -
Tags generated
Created
Modified
Stats Distance 234 nm / 434 km
Max Altitude 29,600 ft / 9,022 m
Waypoints 4
Social Downloads 1
Likes 0
Share VATSIM

Download

Looking for another format? Having issues loading an existing format? Contact us
Advertisement - Login to hide

Notes

Basic altitude profile: - Ascent Rate: 2500ft/min - Ascent Speed: 250kts - Cruise Altitude: 35000ft - Cruise Speed: 420kts - Descent Rate: 1500ft/min - Descent Speed: 250kts Options: - Use NATs: yes - Use PACOTS: yes - Use low airways: yes - Use high airways: no

Route

FOOL ARASI H455G ETNOM FKYS

ID Type Via Altitude Latitude Longitude Leg Dist Tot Dist Heading (true) Name
O FOOL APT - 0 ft / 0 m 0.45862˚ 9.41225˚ - 0 nm - Leon M Ba
ARASI FIX - 29,600 ft / 9,022 m 1.80056˚ 10.27750˚ 95 nm 95 nm 33° / 33° -
ETNOM FIX H455G (AWY-LO) 19,000 ft / 5,791 m 2.48750˚ 10.73306˚ 49 nm 145 nm 34° / 34° -
O FKYS APT - 0 ft / 0 m 3.72255˚ 11.55327˚ 89 nm 234 nm 34° / 34° YAOUNDE NSIMALEN

Altitude Profile

Advertisement - Login to hide

Weather


0- 5 10 15 20 25 30 35+ Temperature / ° C

Clouds and Precipitation
Forecast for 2018-06-24 18:00 UTC. Updated 3 hours ago

Ground ~20,000 ft ~40,000 ft Winds

FOOL

Details ICAO FOOL (LBV)
Name Leon M Ba
Region Gabon
Timezone Africa/Libreville (UTC+1.0)
Stats Elevation 39 ft / 12 m (AMSL)
Location 0.458616° 9.412250°
Runways 1
Magnetic Variation 1.867° W

METAR

FOOL 241830Z 27004KT 9999 SCT010 26/23 Q1012 NOSIG

Decode

TAF

TAF FOOL 241700Z 2418/2524 26008KT 9999 SCT012 TEMPO 2505/2509 BKN010 OVC030

Decode

Departure Runways

ID Width Length Bearing (true) Bearing (mag) Surface Threshold Offset Overrun Length
16 148 ft / 45 m 9,889 ft / 3,014 m 154.19° 156.06° Asphalt 0 ft / 0 m 192 ft / 59 m
34 148 ft / 45 m 9,889 ft / 3,014 m 334.19° 336.06° Asphalt 0 ft / 0 m 209 ft / 64 m

FKYS

Details ICAO FKYS (NSI)
Name YAOUNDE NSIMALEN
Region Cameroon
Timezone Africa/Douala (UTC+1.0)
Stats Elevation 2,278 ft / 694 m (AMSL)
Location 3.722554° 11.553270°
Runways 1
Magnetic Variation 0.627° W

METAR

FKYS 241800Z /////KT 8000 -TSRA SCT013 FEW020CB 22/21 Q1016 TEMPO 4000 -TSRA

Decode

TAF

TAF FKYS 241700Z 2418/2518 VRB05KT 9999 TS BKN013 FEW020CB TEMPO 2418/2420 4000 TSRA BECMG 2421/2423 NSW BKN006 BECMG 2507/2509 BKN016 TEMPO 2515/2518 TS BKN013 FEW020CB

Decode

Destination Runways

ID Width Length Bearing (true) Bearing (mag) Surface Threshold Offset Overrun Length
01 148 ft / 45 m 11,220 ft / 3,420 m 9.87° 10.50° Asphalt 0 ft / 0 m 200 ft / 61 m
19 148 ft / 45 m 11,220 ft / 3,420 m 189.87° 190.50° Asphalt 0 ft / 0 m 200 ft / 61 m

Popular Alternatives